Simultaneous Nadir Overpasses (SNOs) Predictions

Prediction of SNOs between LANDSAT-8 and METOP-B Satellite Orbit:

Table of predicted SNOs for the next 14.0 days since TLE Epoch: 1/23/2022
Index Date (LANDSAT-8) Time (LANDSAT-8) Lat,Lon (LANDSAT-8) SZA (LANDSAT-8 ) Date (METOP-B) Time (METOP-B) Lat,Lon (METOP-B) SZA (METOP-B ) Distance(km) Time Diff (sec)
1 01/25/2022 20:24:05 -81.16, 94.34 78.34 01/25/2022 20:24:00 -81.16, 94.48 78.33 2.28 5
2 01/25/2022 21:13:31 81.17, -97.91 101.67 01/25/2022 21:14:40 81.17, -97.95 101.69 0.72 69
3 01/28/2022 15:08:52 81.14, -7.25 100.88 01/28/2022 15:07:41 81.13, -7.42 100.83 2.98 71
4 01/28/2022 15:58:18 -81.16, 160.69 79.09 01/28/2022 15:58:20 -81.16, 160.68 79.09 0.22 2
5 01/31/2022 10:43:06 81.13, 59.00 100.08 01/31/2022 10:42:01 81.13, 59.09 100.07 1.74 65
6 01/31/2022 11:32:32 -81.15,-133.04 79.89 01/31/2022 11:32:41 -81.15,-133.15 79.90 1.94 9
7 02/03/2022 06:17:19 81.13, 125.55 99.28 02/03/2022 06:16:21 81.14, 125.57 99.26 0.53 58
8 02/03/2022 07:06:45 -81.15, -66.47 80.69 02/03/2022 07:07:01 -81.15, -66.63 80.70 2.74 16
9 02/06/2022 01:51:32 81.13,-167.97 98.43 02/06/2022 01:50:41 81.14,-167.97 98.42 0.28 51



Historial Predications of SNOs between LANDSAT-8 and METOP-B
